Stations météo

réclame
Mon MeteoGroup
Vlissingen, Pays-Bas (6310): Température de l'air & dewpoint: 17.10.2018 11:00:00 - 23.10.2018 11:00:00 (CEST)Vlissingen, Pays-Bas (6310): Température de l'air 5cm: 17.10.2018 11:00:00 - 23.10.2018 11:00:00 (CEST)Vlissingen, Pays-Bas (6310): Vitesse du vent & gusts: 17.10.2018 11:00:00 - 23.10.2018 11:00:00 (CEST)Vlissingen, Pays-Bas (6310): Direction du vent: 17.10.2018 11:00:00 - 23.10.2018 11:00:00 (CEST)Vlissingen, Pays-Bas (6310): reduced air pressure: 17.10.2018 11:00:00 - 23.10.2018 11:00:00 (CEST)Vlissingen, Pays-Bas (6310): visibility: 17.10.2018 11:00:00 - 23.10.2018 11:00:00 (CEST)Vlissingen, Pays-Bas (6310): Quantités de précipitations: 17.10.2018 11:00:00 - 23.10.2018 11:00:00 (CEST)
Date & Time tt [°C] td [°C] tt 5cm [°C] ff [km/h] ff [knt] fx [km/h] fx [knt] dd ppp [hPa] vv [km] rr [mm]
23.10.2018 11:00:00 12,7 8,0 12,6 31 17 50 27 WNW 1027,6 10 0,0
23.10.2018 10:00:00 12,9 6,7 12,6 37 20 58 31 WNW 1027,7 10 0,0
23.10.2018 09:00:00 12,7 7,6 12,0 35 19 50 27 WNW 1028,1 10 0,0
23.10.2018 08:00:00 12,5 7,9 11,9 41 22 58 31 W 1028,1 10 0,0
23.10.2018 07:00:00 12,7 8,0 12,0 37 20 58 31 WNW 1028,7 10 0,0
23.10.2018 06:00:00 12,5 7,8 11,9 39 21 54 29 WNW 1029,2 10 0,0
23.10.2018 05:00:00 12,6 7,3 11,8 31 17 54 29 WNW 1030,6 10 0,0
23.10.2018 04:00:00 12,7 7,0 12,0 37 20 47 25 W 1030,8 10 0,0
23.10.2018 03:00:00 12,3 6,0 11,4 29 16 40 21 W 1032,1 10 0,0
23.10.2018 02:00:00 12,2 5,9 10,8 16 9 36 19 WNW 1033,4 10 0,0
23.10.2018 01:00:00 11,2 6,0 9,7 13 7 25 14 NW 1034,1 10 0,0
23.10.2018 00:00:00 11,0 5,8 8,4 11 6 14 8 NW 1034,9 10 0,0
22.10.2018 23:00:00 10,4 5,4 8,4 9 5 14 8 NW 1035,3 10 0,0
22.10.2018 22:00:00 10,3 5,1 8,7 9 5 14 8 NNW 1035,3 10 0,0
22.10.2018 21:00:00 10,7 4,9 9,3 11 6 14 8 N 1035,3 10 0,0
22.10.2018 20:00:00 11,7 5,0 10,7 9 5 14 8 N 1035,3 10 0,0
22.10.2018 19:00:00 11,9 4,6 11,0 13 7 18 10 N 1035,0 10 0,0
22.10.2018 18:00:00 12,9 5,4 12,3 21 11 32 18 N 1034,8 10 0,0
22.10.2018 17:00:00 14,1 5,5 13,9 18 10 32 18 N 1034,6 10 0,0
22.10.2018 16:00:00 14,6 5,5 15,2 18 10 29 16 N 1034,3 10 0,0
22.10.2018 15:00:00 15,0 6,3 15,2 24 13 40 21 N 1034,2 10 0,0
22.10.2018 14:00:00 14,8 5,9 15,7 24 13 36 19 NNE 1034,1 10 0,0
22.10.2018 13:00:00 14,3 6,0 14,0 24 13 36 19 N 1034,2 10 0,0
22.10.2018 12:00:00 14,3 6,2 14,4 22 12 40 21 NNE 1033,8 10 0,0
22.10.2018 11:00:00 14,0 7,3 13,8 22 12 36 19 N 1033,4 10 0,0
22.10.2018 10:00:00 13,5 8,1 12,5 21 11 36 19 N 1032,6 10 0,0
22.10.2018 09:00:00 13,2 7,7 12,6 22 12 36 19 N 1031,7 10 0,0
22.10.2018 08:00:00 13,6 9,3 12,9 28 15 47 25 N 1030,5 10 0,0
22.10.2018 07:00:00 13,3 11,5 12,9 26 14 40 21 N 1029,8 10 0,3
22.10.2018 06:00:00 13,3 12,6 13,1 21 11 43 23 N 1029,1 6 0,3
22.10.2018 05:00:00 13,8 12,6 13,5 18 10 36 19 N 1028,7 10 0,0
22.10.2018 04:00:00 13,9 13,3 13,8 29 16 47 25 N 1028,3 5 0,0
22.10.2018 03:00:00 15,0 13,9 14,9 21 11 36 19 N 1027,6 7 0,0
22.10.2018 02:00:00 14,8 13,5 14,4 13 7 22 12 N 1027,5 8 0,0
22.10.2018 01:00:00 14,0 12,8 13,4 11 6 11 6 W 1027,4 4,9 0,0
22.10.2018 00:00:00 13,8 12,3 12,4 8 4 11 6 WSW 1027,1 5 0,0
21.10.2018 23:00:00 13,7 11,6 11,3 9 5 11 6 W 1026,8 7 0,0
21.10.2018 22:00:00 13,7 11,5 11,7 8 4 11 6 NW 1026,8 7 0,0
21.10.2018 21:00:00 13,6 10,1 11,0 5 3 11 6 WSW 1026,7 9 0,0
21.10.2018 20:00:00 14,8 11,5 12,5 5 3 7 4 SW 1026,5 8 0,0
21.10.2018 19:00:00 15,0 11,0 12,9 5 3 7 4 WSW 1026,3 8 0,0
21.10.2018 18:00:00 16,0 10,8 16,0 5 3 7 4 WSW 1026,5 9 0,0
21.10.2018 17:00:00 16,7 10,3 17,3 4 2 7 4 WSW 1026,7 10 0,0
21.10.2018 16:00:00 16,9 9,8 18,6 4 2 7 4 - 1027,2 10 0,0
21.10.2018 15:00:00 16,5 8,5 19,0 5 3 7 4 SSW 1027,7 10 0,0
21.10.2018 14:00:00 16,3 9,3 18,5 9 5 14 8 SSW 1028,0 10 0,0
21.10.2018 13:00:00 14,6 8,5 16,6 15 8 18 10 S 1028,7 10 0,0
21.10.2018 12:00:00 14,6 8,9 15,2 15 8 18 10 SSW 1029,1 10 0,0
21.10.2018 11:00:00 13,4 8,5 14,8 15 8 18 10 SSW 1029,1 10 0,0
21.10.2018 10:00:00 12,4 8,6 12,6 15 8 18 10 SSW 1029,2 10 0,0
21.10.2018 09:00:00 12,1 8,4 11,6 11 6 14 8 SSW 1029,0 10 0,0
21.10.2018 08:00:00 12,0 8,1 11,7 11 6 14 8 SW 1028,8 10 0,0
21.10.2018 07:00:00 12,3 8,5 11,6 15 8 18 10 SSW 1028,9 10 0,0
21.10.2018 06:00:00 12,2 8,2 11,2 15 8 18 10 SSW 1029,2 10 0,0
21.10.2018 05:00:00 12,6 8,5 12,2 13 7 18 10 SSW 1029,4 10 0,0
21.10.2018 04:00:00 12,8 8,6 12,4 15 8 18 10 SW 1029,7 10 0,0
21.10.2018 03:00:00 12,8 8,9 12,3 15 8 18 10 SW 1029,9 10 0,0
21.10.2018 02:00:00 13,2 8,8 12,7 13 7 18 10 S 1030,4 10 0,0
21.10.2018 01:00:00 12,8 9,8 11,5 9 5 14 8 S 1031,0 10 0,0
21.10.2018 00:00:00 13,6 10,0 12,1 8 4 11 6 S 1031,0 10 0,0
20.10.2018 23:00:00 13,6 10,5 11,5 5 3 7 4 S 1031,0 10 0,0
20.10.2018 22:00:00 12,7 10,2 9,5 4 2 7 4 E 1031,1 10 0,0
20.10.2018 21:00:00 12,3 9,8 9,4 4 2 4 2 - 1031,2 10 0,0
20.10.2018 20:00:00 12,6 9,6 9,5 5 3 7 4 NNW 1031,4 10 0,0
20.10.2018 19:00:00 13,4 9,3 11,8 5 3 11 6 N 1031,0 10 0,0
20.10.2018 18:00:00 14,3 8,4 13,9 5 3 11 6 WNW 1030,7 10 0,0
20.10.2018 17:00:00 14,8 8,4 14,9 4 2 11 6 - 1031,0 10 0,0
20.10.2018 16:00:00 15,1 8,2 16,1 2 1 7 4 - 1031,2 10 0,0
20.10.2018 15:00:00 15,2 8,2 17,7 11 6 14 8 S 1031,3 10 0,0
20.10.2018 14:00:00 14,8 7,5 17,7 8 4 11 6 S 1032,1 10 0,0
20.10.2018 13:00:00 13,7 8,8 15,3 8 4 11 6 SSW 1032,5 10 0,0
20.10.2018 12:00:00 13,1 9,0 13,5 13 7 14 8 S 1032,1 10 0,0
20.10.2018 11:00:00 12,0 9,7 12,1 11 6 14 8 SSW 1032,0 7 0,0
20.10.2018 10:00:00 12,1 9,4 11,3 8 4 11 6 S 1031,8 8 0,0
20.10.2018 09:00:00 11,6 8,8 9,5 8 4 11 6 ESE 1031,0 7 0,0
20.10.2018 08:00:00 10,5 9,0 8,8 4 2 7 4 - 1030,2 6 0,0
20.10.2018 07:00:00 10,4 8,6 9,1 8 4 11 6 E 1030,0 6 0,0
20.10.2018 06:00:00 10,3 8,4 8,4 5 3 7 4 ENE 1029,6 7 0,0
20.10.2018 05:00:00 9,8 8,2 8,2 5 3 7 4 NE 1029,2 9 0,0
20.10.2018 04:00:00 10,3 8,6 8,6 4 2 7 4 - 1028,6 10 0,0
20.10.2018 03:00:00 9,7 8,3 7,7 9 5 11 6 ENE 1028,6 10 0,0
20.10.2018 02:00:00 10,0 7,8 7,9 9 5 11 6 NNE 1028,7 10 0,0
20.10.2018 01:00:00 10,1 7,7 8,9 9 5 11 6 NNE 1028,5 10 0,0
20.10.2018 00:00:00 10,3 7,6 9,0 9 5 14 8 N 1027,9 10 0,0
19.10.2018 23:00:00 10,8 8,2 9,3 8 4 11 6 NNE 1028,1 10 0,0
19.10.2018 22:00:00 11,2 8,0 10,1 13 7 18 10 NNE 1027,8 10 0,0
19.10.2018 21:00:00 11,3 8,1 10,2 11 6 18 10 N 1027,0 10 0,0
19.10.2018 20:00:00 11,6 8,3 10,6 13 7 18 10 N 1026,4 10 0,0
19.10.2018 19:00:00 12,7 8,6 11,9 13 7 18 10 N 1026,0 10 0,0
19.10.2018 18:00:00 13,9 8,9 13,6 15 8 25 14 N 1025,4 10 0,0
19.10.2018 17:00:00 15,1 9,2 15,3 13 7 18 10 NNE 1024,9 10 0,0
19.10.2018 16:00:00 15,4 10,0 16,3 9 5 14 8 N 1025,0 10 0,0
19.10.2018 15:00:00 15,1 10,2 16,4 9 5 14 8 NNE 1025,0 10 0,0
19.10.2018 14:00:00 14,6 10,1 16,0 9 5 14 8 NNE 1025,5 10 0,0
19.10.2018 13:00:00 13,9 9,7 16,2 9 5 14 8 NNE 1025,6 10 0,0
19.10.2018 12:00:00 12,7 9,1 14,3 11 6 14 8 NE 1025,8 10 0,0
19.10.2018 11:00:00 11,7 8,7 12,4 18 10 25 14 ENE 1025,4 10 0,0
19.10.2018 10:00:00 11,2 8,6 11,4 16 9 25 14 NE 1025,3 10 0,0
19.10.2018 09:00:00 10,5 8,4 10,3 16 9 22 12 NE 1025,1 10 0,0
19.10.2018 08:00:00 10,5 8,1 10,3 18 10 22 12 ENE 1025,0 10 0,0
19.10.2018 07:00:00 10,7 8,4 10,5 18 10 25 14 ENE 1025,0 10 0,0
19.10.2018 06:00:00 10,8 8,6 10,6 16 9 22 12 ENE 1024,9 10 0,0
19.10.2018 05:00:00 11,2 8,7 10,9 15 8 18 10 ENE 1024,9 10 0,0
19.10.2018 04:00:00 10,9 8,6 10,4 16 9 22 12 NE 1025,0 10 0,0
19.10.2018 03:00:00 11,0 8,3 10,5 13 7 18 10 ENE 1025,1 10 0,0
19.10.2018 02:00:00 11,2 8,4 10,4 16 9 25 14 NE 1025,0 10 0,0
19.10.2018 01:00:00 12,0 9,1 10,9 18 10 22 12 ENE 1025,1 32 0,0
19.10.2018 00:00:00 11,7 9,0 11,0 15 8 22 12 NE 1025,3 10 0,0
18.10.2018 23:00:00 12,3 8,8 11,4 11 6 18 10 ENE 1025,4 10 0,0
18.10.2018 22:00:00 13,0 8,9 12,1 15 8 25 14 NE 1025,6 10 0,0
18.10.2018 21:00:00 12,8 8,9 11,9 13 7 18 10 NE 1025,6 10 0,0
18.10.2018 20:00:00 13,3 9,0 12,2 15 8 25 14 NNE 1025,3 10 0,0
18.10.2018 19:00:00 14,2 9,4 12,9 13 7 22 12 NNE 1025,1 10 0,0
18.10.2018 18:00:00 15,1 8,6 14,7 24 13 32 18 NNE 1024,6 10 0,0
18.10.2018 17:00:00 15,5 9,6 15,7 24 13 36 19 NNE 1024,6 10 0,0
18.10.2018 16:00:00 15,6 9,5 15,8 21 11 32 18 NNE 1024,9 10 0,0
18.10.2018 15:00:00 15,8 9,6 16,5 21 11 32 18 NNE 1025,1 10 0,0
18.10.2018 14:00:00 15,9 10,0 17,5 21 11 32 18 NNE 1025,1 10 0,0
18.10.2018 13:00:00 15,6 11,2 15,5 21 11 29 16 NE 1025,5 10 0,0
18.10.2018 12:00:00 15,0 10,5 15,3 22 12 32 18 NE 1025,5 10 -
18.10.2018 11:00:00 - - - 22 12 32 18 NE 1025,3 - -
18.10.2018 10:00:00 14,3 11,6 14,1 18 10 25 14 NE 1024,9 10 0,0
18.10.2018 09:00:00 13,8 11,8 13,3 15 8 18 10 NE 1024,5 10 0,0
18.10.2018 08:00:00 13,6 12,4 13,3 16 9 22 12 NE 1024,1 10 0,0
18.10.2018 07:00:00 13,7 12,6 13,5 24 13 36 19 NE 1023,7 10 0,0
18.10.2018 06:00:00 13,6 12,6 13,3 5 3 11 6 N 1023,5 9 0,0
18.10.2018 05:00:00 14,0 12,2 13,0 5 3 11 6 ENE 1023,1 10 0,0
18.10.2018 04:00:00 14,5 12,1 14,0 5 3 7 4 N 1023,1 10 0,0
18.10.2018 03:00:00 14,4 11,9 14,0 8 4 11 6 N 1023,2 10 0,0
18.10.2018 02:00:00 13,9 11,7 13,1 13 7 14 8 NNE 1023,0 10 0,0
18.10.2018 01:00:00 13,3 11,3 12,2 7 4 11 6 N 1022,9 26 0,0
18.10.2018 00:00:00 12,9 11,1 11,8 8 4 11 6 NNE 1022,7 10 0,0
17.10.2018 23:00:00 13,2 11,1 12,0 9 5 14 8 N 1022,2 10 0,0
17.10.2018 22:00:00 13,4 11,3 11,7 5 3 11 6 N 1021,9 10 0,0
17.10.2018 21:00:00 13,8 11,1 12,6 8 4 11 6 NNE 1021,3 10 0,0
17.10.2018 20:00:00 14,2 11,2 13,2 9 5 14 8 N 1021,0 10 0,0
17.10.2018 19:00:00 15,2 11,4 14,2 13 7 18 10 NNW 1020,5 10 0,0
17.10.2018 18:00:00 16,3 11,1 15,9 13 7 18 10 NNW 1020,0 10 0,0
17.10.2018 17:00:00 17,1 11,2 17,3 15 8 22 12 NW 1020,0 10 0,0
17.10.2018 16:00:00 17,6 11,5 19,0 11 6 22 12 NW 1019,8 10 0,0
17.10.2018 15:00:00 16,5 11,0 17,0 16 9 22 12 WNW 1019,8 10 0,0
17.10.2018 14:00:00 16,8 11,7 18,0 18 10 25 14 WNW 1019,7 10 0,0
17.10.2018 13:00:00 16,4 13,3 17,6 11 6 22 12 WNW 1019,6 10 0,0
17.10.2018 12:00:00 16,1 14,5 17,1 8 4 14 8 WSW 1019,8 6 0,0
17.10.2018 11:00:00 15,4 14,2 16,2 8 4 11 6 SW 1019,6 5 0,0

tt = Température de l'air
td = dewpoint
tt 5cm = Température de l'air 5cm
ff = Vitesse du vent
fx = gusts
dd = Direction du vent
ppp = reduced air pressure
vv = visibility
rr = Quantités de précipitations

stations d'obs. à proximité